User: anonymous   Login
Location: Antioch Church
(34.9543°N, 88.5145°W)
Time: 10:20:33
(UTC+00:00)
Language:

Cosmos 489 Rocket - Orbit

View from above orbital plane
View from above orbital plane
View from above satellite
View from above satellite

Ground track
Ground track

The orbit data is extracted from the following two-line orbital elements,

1  6020U 72035B   20056.81264321 -.00000097  00000-0 -73026-4 0  9995
2  6020  74.0184  70.9901 0020925 181.9635 351.0387 13.78821593404744
Epoch (UTC): 25 February 2020 19:30:12
Eccentricity: 0.0020925
inclination: 74.0184°
perigee height: 952 km
apogee height: 983 km
right ascension of ascending node: 70.9901°
argument of perigee: 181.9635°
revolutions per day: 13.78821593
mean anomaly at epoch: 351.0387°
orbit number at epoch: 40474

The dashed part of the orbit path shows where the satellite is in the earth's shadow,  

DLR